Location: Lancaster
(34.6980°N, 118.1360°W)
Time: 13:32:53
(UTC-08:00)

Vanguard 3 - All Passes

Search period start: 16 January 2018 00:00
Search period end: 26 January 2018 00:00
Orbit: 508 x 3264 km, 33.4° (Epoch: 15 January)

Date Brightness Start Highest point End Pass type
(mag) Time Alt. Az. Time Alt. Az. Time Alt. Az.
16 Jan - 01:24:52 10° WSW 01:41:08 73° SSE 02:01:04 10° E visible
16 Jan - 03:39:19 10° W 03:58:47 86° S 04:16:57 10° E visible
16 Jan - 05:56:05 10° W 06:16:05 72° SSW 06:30:34 10° ESE visible
16 Jan - 08:14:48 10° W 08:30:11 36° SW 08:40:40 10° SSE daylight
16 Jan - 22:02:49 10° S 22:11:47 23° SE 22:23:48 10° E night (unlit)
17 Jan - 00:10:54 10° SW 00:24:47 59° SSE 00:44:02 10° ENE visible
17 Jan - 02:23:39 10° WSW 02:41:20 84° S 03:01:02 10° E visible
17 Jan - 04:39:13 10° W 04:59:16 82° SSW 05:16:07 10° ESE visible
17 Jan - 06:56:39 10° WNW 07:15:13 53° SSW 07:28:11 10° SE daylight
17 Jan - 09:18:09 10° W 09:27:34 18° SW 09:34:55 10° SSW daylight
17 Jan - 22:57:59 10° SSW 23:09:26 42° SE 23:26:13 10° E visible
18 Jan - 01:08:50 10° WSW 01:24:15 76° SSE 01:44:25 10° E visible
18 Jan - 03:23:01 10° W 03:41:54 86° S 04:00:45 10° E visible
18 Jan - 05:39:20 10° W 05:59:14 68° SSW 06:14:35 10° SE visible
18 Jan - 07:58:03 10° W 08:13:25 33° SW 08:24:28 10° SSE daylight
18 Jan - 21:46:26 10° S 21:55:06 25° SE 22:07:17 10° E night (unlit)
18 Jan - 23:54:56 10° SW 00:07:59 62° SSE 00:27:10 10° ENE visible
19 Jan - 02:07:35 10° W 02:24:27 85° S 02:44:34 10° E visible
19 Jan - 04:22:44 10° W 04:42:21 79° SSW 04:59:59 10° ESE visible
19 Jan - 06:39:51 10° WNW 06:58:20 49° SW 07:12:04 10° SE daylight
19 Jan - 09:02:11 10° W 09:10:51 16° SW 09:17:58 10° SSW daylight
19 Jan - 20:38:39 10° SE 20:41:31 11° SE 20:44:44 10° ESE night (unlit)
19 Jan - 22:42:00 10° SSW 22:52:43 45° SE 23:09:19 10° ENE visible
20 Jan - 00:52:56 10° WSW 01:07:28 79° SSE 01:27:40 10° E visible
20 Jan - 03:06:49 10° W 03:25:00 85° S 03:44:25 10° E visible
20 Jan - 05:22:41 10° WNW 05:42:16 65° SSW 05:58:26 10° SE visible
20 Jan - 07:41:25 10° W 07:56:32 30° SW 08:08:02 10° S daylight
20 Jan - 21:30:15 10° S 21:38:30 28° SE 21:50:39 10° E night (unlit)
20 Jan - 23:39:07 10° SW 23:51:17 66° SSE 00:10:14 10° E visible
21 Jan - 01:51:37 10° W 02:07:40 86° S 02:27:59 10° E visible
21 Jan - 04:06:21 10° W 04:25:24 76° SSW 04:43:43 10° ESE visible
21 Jan - 06:23:09 10° WNW 06:41:21 46° SW 06:55:45 10° SSE visible
21 Jan - 08:46:41 10° W 08:54:05 14° SW 09:00:30 10° SSW daylight
21 Jan - 20:21:15 10° SSE 20:25:04 13° SE 20:29:37 10° ESE night (unlit)
21 Jan - 22:26:10 10° SW 22:36:09 49° SE 22:52:21 10° ENE night (unlit)
22 Jan - 00:37:09 10° WSW 00:50:47 81° SSE 01:10:51 10° E visible
22 Jan - 02:50:43 10° W 03:08:07 84° S 03:27:58 10° ESE visible
22 Jan - 05:06:09 10° WNW 05:25:14 61° SSW 05:42:06 10° SE visible
22 Jan - 07:24:59 10° W 07:39:35 27° SW 07:51:22 10° S daylight
22 Jan - 21:14:16 10° SSW 21:22:01 30° SE 21:33:57 10° E night (unlit)
22 Jan - 23:23:25 10° WSW 23:34:45 69° SSE 23:53:13 10° E visible
23 Jan - 01:35:46 10° W 01:50:55 86° S 02:11:18 10° E visible
23 Jan - 03:50:04 10° W 04:08:24 73° SSW 04:27:17 10° ESE visible
23 Jan - 06:06:36 10° W 06:24:17 42° SW 06:39:14 10° SSE visible
23 Jan - 08:32:03 10° WSW 08:37:16 12° SW 08:42:04 10° SW daylight
23 Jan - 20:04:32 10° SSE 20:08:43 14° SE 20:13:56 10° E visible
23 Jan - 22:10:28 10° SW 22:19:42 52° SSE 22:35:21 10° ENE night (unlit)
24 Jan - 00:21:28 10° WSW 00:34:13 83° S 00:53:55 10° E visible
24 Jan - 02:34:43 10° W 02:51:15 82° SSW 03:11:22 10° ESE visible
24 Jan - 04:49:45 10° WNW 05:08:09 56° SSW 05:25:35 10° SE visible
24 Jan - 07:08:46 10° W 07:22:35 24° SW 07:34:24 10° S daylight
24 Jan - 20:58:26 10° SSW 21:05:41 32° SE 21:17:12 10° E visible
24 Jan - 23:07:50 10° WSW 23:18:20 73° SSE 23:36:11 10° E visible
25 Jan - 01:20:01 10° W 01:34:14 86° S 01:54:30 10° E visible
25 Jan - 03:33:53 10° W 03:51:24 69° SSW 04:10:41 10° SE visible
25 Jan - 05:50:14 10° W 06:07:12 38° SW 06:22:29 10° SSE visible
25 Jan - 19:48:11 10° SSE 19:52:28 15° SE 19:58:01 10° E visible
25 Jan - 21:54:53 10° SW 22:03:25 55° SSE 22:18:21 10° E night (unlit)
